Home > Weather > Münster > Past weeks

Flag for Germany Weather for the Past 2 Weeks in Münster, North Rhine-Westphalia, Germany

Now
32 °F

Passing clouds.


Feels Like: 29 °F
Forecast: 35 / 36 °F
Wind: 3 mph from Northeast

Location: Muenster / Osnabrueck

Current Time: Feb 13, 2016 at 2:16:03 AM

Latest Report: Feb 13, 2016 at 1:20 AM


Visibility: N/A

Pressure: 29.45 "Hg

Humidity: 93%

Dew point: 30 °F

Location of MünsterLocation

Historic Weather in Münster — Graph

°F

Münster Temperature Yesterday

Maximum temperature yesterday: 43 °F (at 1:20 PM)
Minimum temperature yesterday: 32 °F (at 11:20 PM)
Average temperature yesterday: 37 °F

High & Low Weather Summary for the Past Weeks

 TemperatureHumidityPressure
High54 °F (Feb 1, 3:50 PM)100% (Jan 31, 6:50 PM)30.27 "Hg (Jan 31, 6:50 PM)
Low32 °F (Feb 9, 8:20 PM)57% (Feb 3, 1:20 PM)28.77 "Hg (Feb 9, 5:50 PM)
Average43 °F83%29.72 "Hg
* Reported Jan 29 12:20 AM — Feb 13 12:20 AM, Münster, Weather by CustomWeather, © 2016

Note: Actual official high and low records may vary slightly from our data, if they occured in-between our weather recording intervals... More about our weather records

Advertising

Münster Weather History for the Previous 24 Hours

 ConditionsComfort  
Time TempWeatherWind HumidityBarometerVisibility
12:20 AM
Sat, Feb 13
32 °FClear.5 mph93%29.45 "Hg10 mi
11:50 PM
Fri, Feb 12
32 °FPassing clouds.3 mph93%29.45 "HgN/A
11:20 PM32 °FPassing clouds.3 mph93%29.45 "HgN/A
10:20 PM34 °FPassing clouds.5 mph87%29.47 "HgN/A
9:50 PM34 °FClear.5 mph87%29.47 "Hg10 mi
9:20 PM34 °FPassing clouds.3 mph87%29.47 "HgN/A
8:50 PM34 °FPassing clouds.3 mph87%29.47 "HgN/A
8:20 PM36 °FPassing clouds.3 mph87%29.47 "HgN/A
7:50 PM36 °FPassing clouds.5 mph87%29.47 "HgN/A
7:20 PM37 °FPassing clouds.2 mph87%29.47 "HgN/A
6:50 PM37 °FPassing clouds.3 mph87%29.47 "HgN/A
6:20 PM39 °FPassing clouds.3 mph81%29.47 "HgN/A
5:50 PM39 °FPassing clouds.3 mph75%29.47 "HgN/A
5:20 PM41 °FScattered clouds.3 mph76%29.47 "HgN/A
4:50 PM41 °FPassing clouds.3 mph76%29.47 "HgN/A
4:20 PM43 °FPartly sunny.3 mph66%29.47 "HgN/A
3:50 PM43 °FPartly sunny.5 mph66%29.47 "HgN/A
3:20 PM43 °FPartly sunny.6 mph71%29.47 "HgN/A
2:50 PM43 °FPartly sunny.7 mph66%29.50 "HgN/A
2:20 PM43 °FPartly sunny.7 mph66%29.50 "HgN/A
1:50 PM43 °FPartly sunny.7 mph76%29.50 "HgN/A
1:20 PM43 °FPartly sunny.7 mph76%29.53 "HgN/A
12:50 PM41 °FPartly sunny.6 mph81%29.53 "HgN/A
12:20 PM41 °FPartly sunny.8 mph81%29.53 "HgN/A
11:50 AM39 °FPartly sunny.9 mph81%29.56 "HgN/A
11:20 AM39 °FPartly sunny.6 mph87%29.56 "HgN/A
10:50 AM37 °FPartly sunny.3 mph93%29.56 "HgN/A
10:20 AM37 °FPartly sunny.3 mph93%29.59 "HgN/A
9:50 AM36 °FPartly sunny.3 mph93%29.59 "Hg4 mi
9:20 AM36 °FPartly sunny.5 mph100%29.59 "Hg4 mi
8:50 AM36 °FPartly sunny.3 mph100%29.59 "Hg4 mi
8:20 AM34 °FFog.2 mph100%29.59 "Hg2 mi
7:50 AM34 °FFog.2 mph100%29.59 "Hg3 mi
7:20 AM36 °FFog.3 mph93%29.59 "Hg3 mi
6:50 AM34 °FFog.2 mph100%29.62 "Hg1 mi
6:20 AM34 °FChilly.2 mph100%29.62 "Hg2 mi
5:50 AM34 °FFog.2 mph100%29.62 "Hg2 mi
5:20 AM34 °FFog.2 mph100%29.62 "Hg3 mi
4:50 AM36 °FFog.3 mph93%29.62 "Hg3 mi
4:20 AM36 °FClear.1 mph93%29.62 "Hg4 mi
3:50 AM36 °FPassing clouds.3 mph100%29.62 "Hg4 mi
3:20 AM34 °FPassing clouds.3 mph100%29.65 "Hg4 mi
2:50 AM34 °FPassing clouds.2 mph93%29.65 "Hg5 mi
2:20 AM37 °FPassing clouds.3 mph87%29.62 "Hg6 mi
Weather by CustomWeather, © 2016

See weather overviewHow to use our weather pages